カタログに戻る

GLOBALSTAR M060

運用中通信LEO
NORAD 26083·PAYLOAD·🇺🇸 United States

打ち上げ Feb 8, 2000 から Cape Canaveral Space Force Station

Loading…

次のパス (今後24時間)

TLE

最新Source: Space-Track

元期: Sep 14, 2026, 08:24 UTC

1 26083U 00008C   26257.35008148 -.00000060  00000-0  31241-3 0  9999
2 26083  51.9998 224.4584 0003444 335.0248 191.4290 12.17681781207693

AllMySatでGLOBALSTAR M060をリアルタイム追跡

Download on the App Store